Weather History for KBKS - April, 2013

Change the Weather History Date:

Wednesday, April 17, 2013

  Actual Average (KNQI) Record (KNQI)
Temperature  
Mean Temperature 84 °F -  
Max Temperature 97 °F 80 °F 98 °F (2012)
Min Temperature 72 °F 63 °F 52 °F (2011)
Cooling Degree Days 20    
Growing Degree Days 34 (Base 50)    
Moisture  
Dew Point 72 °F    
Average Humidity 67    
Maximum Humidity 95    
Minimum Humidity 35    
Precipitation  
Precipitation 0.00 in - - ()
Sea Level Pressure  
Sea Level Pressure 29.70 in    
Wind  
Wind Speed 12 mph (SE)    
Max Wind Speed 23 mph    
Max Gust Speed 30 mph    
Visibility 6 miles    
Events      
Averages and records for this station are not official NWS values.
T = Trace of Precipitation, MM = Missing Value Source: NWS Daily Summary

Daily Weather History Graph

Daily Weather History Graph

Search for Another Location

Airport or City:

Trip Planner

Search our weather history database for the weather conditions in past years. The results will help you decide how hot, cold, wet, or windy it might be!

Date:

Astronomy

Apr. 17, 2013 Rise Set
Actual Time 7:06 AM CDT 7:58 PM CDT
Civil Twilight 6:42 AM CDT 8:22 PM CDT
Nautical Twilight 6:13 AM CDT 8:50 PM CDT
Astronomical Twilight 5:45 AM CDT 9:19 PM CDT
Moon 12:31 PM CDT (4/17) 1:26 AM CDT (4/17)
Length of Visible Light 13h 40m
Length of Day
12h 52m
Waxing Crescent, 42% of the Moon is Illuminated
Apr 17
Waxing Crescent
Apr 18
First Quarter
Apr 25
Full
May 2
Last Quarter
May 9
New

Hourly Weather History & Observations

Time (CDT) Temp. Heat Index Dew Point Humidity Pressure Visibility Wind Dir Wind Speed Gust Speed Precip Events Conditions
12:15 AM 75.7 °F - 73.8 °F 94% 29.83 in 1.5 mi ESE 8.1 mph - N/A   Overcast
12:35 AM 75.4 °F - 73.8 °F 95% 29.83 in 1.8 mi ESE 5.8 mph - N/A   Overcast
12:55 AM 75.2 °F - 73.4 °F 94% 29.84 in 2.0 mi ESE 6.9 mph - N/A   Overcast
1:15 AM 74.8 °F - 73.4 °F 95% 29.83 in 2.0 mi ESE 8.1 mph - N/A   Overcast
1:55 AM 74.3 °F - 72.7 °F 95% 29.83 in 3.0 mi SE 10.4 mph - N/A   Overcast
8:55 AM 72.9 °F - 70.2 °F 91% 29.80 in 3.0 mi ESE 8.1 mph - N/A   Unknown
9:15 AM 74.5 °F - 70.2 °F 86% 29.81 in 4.0 mi ESE 9.2 mph - N/A   Overcast
9:35 AM 75.2 °F - 70.7 °F 86% 29.81 in 4.0 mi ESE 8.1 mph - N/A   Overcast
9:55 AM 75.6 °F - 70.9 °F 85% 29.81 in 5.0 mi ESE 9.2 mph - N/A   Overcast
10:15 AM 76.1 °F - 71.2 °F 85% 29.81 in 5.0 mi ESE 6.9 mph - N/A   Overcast
10:35 AM 77.0 °F - 71.6 °F 83% 29.81 in 5.0 mi East 6.9 mph - N/A   Overcast
10:55 AM 77.7 °F - 71.6 °F 81% 29.80 in 5.0 mi ESE 9.2 mph - N/A   Overcast
11:15 AM 79.7 °F - 71.6 °F 76% 29.79 in 4.0 mi SE 13.8 mph 19.6 mph N/A   Overcast
11:35 AM 81.0 °F 85.2 °F 71.8 °F 74% 29.78 in 5.0 mi SE 11.5 mph 19.6 mph N/A   Overcast
11:55 AM 81.7 °F 86.5 °F 72.1 °F 73% 29.78 in 5.0 mi SE 9.2 mph 18.4 mph N/A   Overcast
12:15 PM 83.3 °F 88.4 °F 72.0 °F 68% 29.77 in 5.0 mi SE 12.7 mph 18.4 mph N/A   Overcast
12:35 PM 85.3 °F 90.8 °F 71.6 °F 63% 29.76 in 7.0 mi SE 12.7 mph 20.7 mph N/A   Overcast
12:55 PM 87.1 °F 92.8 °F 71.2 °F 59% 29.75 in 4.0 mi SSE 13.8 mph 24.2 mph N/A   Mostly Cloudy
1:15 PM 90.1 °F 96.8 °F 71.2 °F 54% 29.72 in 5.0 mi SE 13.8 mph 23.0 mph N/A   Scattered Clouds
1:35 PM 91.0 °F 97.1 °F 70.7 °F 51% 29.71 in 7.0 mi SE 18.4 mph 26.5 mph N/A   Scattered Clouds
1:55 PM 93.6 °F 99.5 °F 70.0 °F 46% 29.70 in 7.0 mi SSE 17.3 mph 24.2 mph N/A   Scattered Clouds
2:15 PM 94.3 °F 98.7 °F 68.2 °F 42% 29.69 in 7.0 mi South 18.4 mph - N/A   Scattered Clouds
2:35 PM 96.1 °F 100.5 °F 67.1 °F 39% 29.68 in 7.0 mi SE 18.4 mph 27.6 mph N/A   Scattered Clouds
2:55 PM 97.0 °F 101.0 °F 66.6 °F 37% 29.67 in 7.0 mi SSE 23.0 mph 29.9 mph N/A   Scattered Clouds
3:35 PM 97.9 °F 101.5 °F 66.0 °F 35% 29.64 in 7.0 mi SE 13.8 mph - N/A   Scattered Clouds
3:55 PM 97.7 °F 101.2 °F 65.8 °F 35% 29.63 in 7.0 mi South 17.3 mph 27.6 mph N/A   Scattered Clouds
4:15 PM 97.9 °F 101.5 °F 66.2 °F 35% 29.61 in 7.0 mi SSE 18.4 mph 26.5 mph N/A   Scattered Clouds
4:35 PM 97.7 °F 101.7 °F 66.4 °F 36% 29.60 in 5.0 mi SSE 17.3 mph 21.9 mph N/A   Scattered Clouds
4:55 PM 97.5 °F 100.8 °F 65.7 °F 35% 29.60 in 10.0 mi SSE 17.3 mph - N/A   Clear
5:15 PM 96.4 °F 102.4 °F 69.4 °F 41% 29.60 in 10.0 mi SE 12.7 mph 24.2 mph N/A   Clear
5:35 PM 93.2 °F 102.4 °F 73.4 °F 52% 29.59 in 7.0 mi ESE 15.0 mph 21.9 mph N/A   Clear
5:55 PM 93.0 °F 102.6 °F 73.8 °F 53% 29.60 in 7.0 mi ESE 15.0 mph 23.0 mph N/A   Clear
6:15 PM 92.5 °F 103.2 °F 74.5 °F 56% 29.59 in 7.0 mi ESE 13.8 mph 21.9 mph N/A   Scattered Clouds
6:35 PM 90.5 °F 100.9 °F 74.7 °F 60% 29.58 in 7.0 mi ESE 18.4 mph 24.2 mph N/A   Clear
6:55 PM 90.1 °F 100.6 °F 75.2 °F 61% 29.59 in 7.0 mi ESE 16.1 mph 19.6 mph N/A   Scattered Clouds
7:15 PM 90.0 °F 99.6 °F 74.5 °F 60% 29.60 in 7.0 mi SE 17.3 mph 21.9 mph N/A   Scattered Clouds
7:35 PM 89.8 °F 98.6 °F 73.6 °F 59% 29.60 in 5.0 mi SE 12.7 mph - N/A   Clear
7:55 PM 86.5 °F 95.9 °F 75.4 °F 69% 29.60 in 7.0 mi ESE 12.7 mph - N/A   Scattered Clouds
8:15 PM 85.3 °F 94.2 °F 75.4 °F 72% 29.61 in 7.0 mi ESE 10.4 mph - N/A   Mostly Cloudy
8:35 PM 84.4 °F 92.7 °F 75.4 °F 74% 29.61 in 7.0 mi ESE 10.4 mph 20.7 mph N/A   Overcast
8:55 PM 84.4 °F 92.0 °F 74.5 °F 72% 29.62 in 7.0 mi SE 18.4 mph 24.2 mph N/A   Scattered Clouds
9:15 PM 83.7 °F 91.0 °F 74.5 °F 74% 29.64 in 7.0 mi SE 16.1 mph 21.9 mph N/A   Clear
9:35 PM 82.6 °F 89.1 °F 74.5 °F 76% 29.65 in 7.0 mi SSE 20.7 mph - N/A   Clear
9:55 PM 82.2 °F 88.5 °F 74.5 °F 77% 29.66 in 7.0 mi SE 16.1 mph 27.6 mph N/A   Scattered Clouds
10:15 PM 81.9 °F 88.0 °F 74.3 °F 78% 29.67 in 7.0 mi SE 17.3 mph 23.0 mph N/A   Mostly Cloudy
10:35 PM 81.7 °F 87.6 °F 74.3 °F 78% 29.67 in 7.0 mi SE 18.4 mph 26.5 mph N/A   Mostly Cloudy
10:55 PM 81.7 °F 87.6 °F 74.1 °F 78% 29.67 in 7.0 mi SSE 18.4 mph 24.2 mph N/A   Overcast
11:35 PM 81.5 °F 86.9 °F 73.8 °F 77% 29.67 in 7.0 mi SSE 20.7 mph - N/A   Overcast
11:55 PM 81.0 °F 86.2 °F 73.8 °F 79% 29.65 in 7.0 mi SE 18.4 mph 25.3 mph N/A   Mostly Cloudy